Retour au catalogue

THORAD AGENA D DEB *

ActifPO
NORAD 5824·DEBRIS·🇺🇸 United States

Lancé Apr 8, 1970 depuis Vandenberg Space Force Base

Loading…

Prochains Passages (prochaines 24 heures)

TLE

FraisSource: Space-Track

Époque: Sep 13, 2026, 08:33 UTC

1 05824U 70025MJ  26256.35634293  .00000364  00000-0  29936-3 0  9994
2 05824  97.8774 296.6978 0598253  58.0924 307.6978 13.31237350688695

Suivez THORAD AGENA D DEB * en temps réel avec AllMySat

Download on the App Store